Location: *
(40.4000°N, 15.1200°E)
Time: 07:44:33
(UTC+00:00)

USA 234 - Pass Details

Date: 09 April 2020
Orbit: 1102 x 1106 km, 123.0° (Epoch: 14 May)

Event Time Altitude Azimuth Distance (km) Brightness Sun altitude
Rises 21:34:30 0° 44° (NE) 3,924 6.4 -37.7°
Reaches altitude 10° 21:37:10 10° 37° (NE) 2,965 5.7 -37.9°
Maximum altitude 21:43:04 38° 332° (NNW) 1,627 4.4 -38.4°
Drops below altitude 10° 21:48:58 10° 268° (W) 2,960 5.7 -38.8°
Sets 21:51:37 0° 260° (W) 3,916 6.3 -39.0°
